Regional Weather Roundup
Issued by NWS Northern Indiana

Home | Current Version | Previous Version | Text Only | Print | Product List | Glossary On
Versions: 1 2 3 4 5 6 7 8 9 10 11 12 13 14 15 16 17 18 19 20 21 22 23 24 25 26 27 28 29 30 31 32 33 34 35 36 37 38 39 40 41 42 43 44 45 46 47 48 49 50
000
ASUS43 KIWX 131510
RWRIWX

KIWX WEATHER ROUNDUP
NATIONAL WEATHER SERVICE NORTHERN INDIANA
1000 AM EST SAT FEB 13 2016

NOTE: "FAIR" INDICATES FEW OR NO CLOUDS BELOW 12,000 FEET WITH NO
SIGNIFICANT WEATHER AND/OR OBSTRUCTIONS TO VISIBILITY.

* THESE STATIONS ARE NOT UNDER NWS QUALITY CONTROL. THEY ALSO MAY NOT
  REPORT WEATHER SUCH AS PRECIPITATION OR FOG.

INZ001>027-131600-
NORTHERN INDIANA

CITY           SKY/WX    TMP DP  RH WIND       PRES   REMARKS
GARY*          MOSUNNY   10 -11  37 W14       30.60R WCI  -5
VALPARAISO     MOSUNNY    8  -4  58 W10       30.56R WCI  -6
MICHIGAN CITY* LGT SNOW  12   3  67 NW10G18   30.54S WCI  -1
LAPORTE*       LGT SNOW  12   5  72 W8        30.53R WCI   0
KNOX*          MOSUNNY    9  -4  56 W15       30.55R WCI  -8
SOUTH BEND     SNOW      11   7  84 W13       30.50S VSB 1/2 WCI  -4
ELKHART*       MOSUNNY  N/A N/A N/A MISG      30.50R
GOSHEN         LGT SNOW  10   6  84 W10       30.49R FOG     WCI  -4
MONTICELLO*    SUNNY      9  -8  45 NW12      30.57R WCI  -6
LOGANSPORT*    SUNNY     10  -6  48 NW9       30.56R WCI  -2
ROCHESTER*     SUNNY     10  -6  48 W14       30.53R WCI  -5
WARSAW*        PTSUNNY    9   3  78 W13       30.51R HAZE    WCI  -7
ANGOLA*        CLOUDY     9   1  72 W6        30.44R WCI  -1
FORT WAYNE     CLOUDY     8   2  76 W13       30.52R WCI  -8
HUNTINGTON*    SUNNY      8  -3  62 W9        30.52R WCI  -6
PERU/GRISSOM   SUNNY      9  -2  61 NW14      30.52R WCI  -7
MARION*        SUNNY      8  -6  53 NW10      30.54R WCI  -6

$$
INZ028>050-131600-
CENTRAL INDIANA

CITY           SKY/WX    TMP DP  RH WIND       PRES   REMARKS
LAFAYETTE      SUNNY      9  -5  53 NW13      30.60R WCI  -7
KOKOMO*        SUNNY     10  -2  56 NW13      30.54R WCI  -5
MUNCIE*        SUNNY      9   0  67 NW8       30.53R WCI  -3
INDIANAPOLIS   MOSUNNY   12  -3  51 NW12      30.56R WCI  -2

$$
MIZ043>046-050>051-056>058-064>065-071>073-077>080-131600-
SOUTHWEST LOWER MICHIGAN

CITY           SKY/WX    TMP DP  RH WIND       PRES   REMARKS
BATTLE CREEK   MOSUNNY    8   2  76 W8        30.44R WCI  -4
BENTON HARBOR  LGT SNOW  14   3  61 NW7G21    30.50S WCI   4
COLDWATER*     LGT SNOW   9   3  77 W8        30.45R WCI  -3
HILLSDALE*     CLOUDY     8   0  72 W9G17     30.41R WCI  -6
HOLLAND        LGT SNOW  13   7  77 NW8       30.47R WCI   2
GRAND RAPIDS   PTSUNNY   12   3  67 NW15      30.44R WCI  -4
KALAMAZOO      CLOUDY     8   3  80 SW5       30.46R HAZE    WCI   0
STURGIS*       LGT SNOW   5   1  83 SW5       30.45S WCI  -4
THREE RIVERS*  LGT SNOW  10   5  80 W3        30.47S

$$
OHZ001>008-015>018-024>025-131600-
NORTHWEST OHIO

CITY           SKY/WX    TMP DP  RH WIND       PRES   REMARKS
DEFIANCE       CLOUDY    11  -1  58 W3        30.49R
FINDLAY        SUNNY     10  -2  58 W15       30.46R WCI  -7
TOLEDO EXPRESS CLOUDY     9  -2  61 W14       30.46R WCI  -7
TOLEDO METCALF MOSUNNY   10  -2  58 W12       30.48R WCI  -5
LIMA           PTSUNNY    9  -3  58 W9        30.47R WCI  -4

$$
AND FOR LAKE MICHIGAN COASTAL AND OPEN LAKE BUOY OBSERVATIONS

STATION/POSITION TEMP    WIND        PRES    VSBY  WAVE
                 AIR SEA DIR/SP/G                  HT/PER
                 (F)     (DEG/KT/KT) (MB)    (MI)  (FT/S)
CALUMET HARBOR     5     280/  7/ 12 1034.4R
MICHIGAN CITY     11     280/ 18/ 21   N/A
BURNS HARBOR       9     310/ 14/ 19 1034.5R
SAINT JOSEPH      15     310/ 13/ 21 1033.5R

$$
&&



USA.gov is the U.S. government's official web portal to all federal, state and local government web resources and services.